This demonstration page uses our WeatherBlox Daily Observations layout. Learn more.

Left ArrowRight Arrow

34.02893, -84.19858

Hourly Observations for January 26, 2018

Temp ( °F °C ) Dew Point ( °F °C ) Humidity (%) Winds ( mph kmh ) Pressure ( in mb ) Visibility ( mi km ) Precip ( " mm )
12:53 am 00:53 Clear 32 0 24 -4.4 73 73 Calm 30.56 1035 10 16 0.00 0.00
1:53 am 01:53 Clear 30 -1.1 23 -5 75 75 Calm 30.56 1035 10 16 0.00 0.00
2:53 am 02:53 Clear 29 -1.7 23 -5 78 78 Calm 30.55 1035 10 16 0.00 0.00
3:53 am 03:53 Clear 30 -1.1 23 -5 75 75 Calm 30.55 1035 10 16 0.00 0.00
4:53 am 04:53 Clear 31 -0.6 24 -4.4 76 76 Calm 30.56 1035 10 16 0.00 0.00
5:53 am 05:53 Clear 33 0.6 24 -4.4 70 70 Calm 30.58 1035 10 16 0.00 0.00
6:53 am 06:53 Clear 32 0 25 -3.9 75 75 Calm 30.60 1036 10 16 0.00 0.00
7:53 am 07:53 Sunny 34 1.1 25 -3.9 70 70 Calm 30.61 1037 8 13 0.00 0.00
8:53 am 08:53 Sunny 37 2.8 26 -3.3 65 65 ENE 5 7 30.64 1038 9 14 0.00 0.00
9:53 am 09:53 Sunny 42 5.6 28 -2.2 58 58 Calm 30.65 1038 10 16 0.00 0.00
10:53 am 10:53 Sunny 46 7.8 25 -3.9 44 44 SE 7 11 30.66 1038 10 16 0.00 0.00
11:53 am 11:53 Sunny 50 10 22 -5.6 33 33 VRB 7 11 30.65 1038 10 16 0.00 0.00
12:53 pm 12:53 Sunny 51 10.6 20 -6.7 29 29 ESE 8 13 30.61 1037 10 16 0.00 0.00
1:53 pm 13:53 Sunny 53 11.7 19 -7.2 26 26 ENE 6 9 30.58 1035 10 16 0.00 0.00
2:53 pm 14:53 Sunny 55 12.8 16 -8.9 21 21 undefined N/A 30.55 1035 10 16 0.00 0.00
3:53 pm 15:53 Sunny 57 13.9 15 -9.4 19 19 undefined N/A 30.53 1034 10 16 0.00 0.00
4:53 pm 16:53 Sunny 54 12.2 17 -8.3 23 23 VRB 6 9 30.54 1034 10 16 0.00 0.00
5:53 pm 17:53 Sunny 53 11.7 18 -7.8 25 25 VRB 3 6 30.53 1034 10 16 0.00 0.00
6:53 pm 18:53 Clear 51 10.6 19 -7.2 28 28 E 5 7 30.54 1034 10 16 0.00 0.00
7:53 pm 19:53 Clear 50 10 19 -7.2 29 29 VRB 5 7 30.54 1034 10 16 0.00 0.00
8:53 pm 20:53 Mostly Cloudy 50 10 20 -6.7 30 30 VRB 6 9 30.55 1034 10 16 0.00 0.00
9:53 pm 21:53 Mostly Cloudy 49 9.4 21 -6.1 33 33 VRB 5 7 30.53 1034 10 16 0.00 0.00
10:53 pm 22:53 Cloudy 50 10 23 -5 35 35 E 5 7 30.53 1034 10 16 0.00 0.00
11:53 pm 23:53 Mostly Cloudy 50 10 25 -3.9 38 38 E 5 7 30.52 1034 10 16 0.00 0.00

Powered by AerisWeather